{"data":{"norad_id":56352,"epoch":"2026-09-20T22:00:03.000096Z","epoch_age_seconds":72522,"freshness":"FRESH","line1":"1 56352U 23058AM  26263.91670139  .00085519  00000+0  37108-2 0  9992","line2":"2 56352  97.2831 257.7924 0001109  50.5292  82.7085 15.21979240  5783","mean_motion":15.2197924,"eccentricity":0.0001109,"inclination_deg":97.2831,"raan_deg":257.7924,"arg_perigee_deg":50.5292,"mean_anomaly_deg":82.7085,"bstar":0.0037108,"rev_number":578,"period_min":94.613642693313,"perigee_km":499.10842321318,"apogee_km":500.63396543068,"semimajor_km":6878.0081943219,"source":"CELESTRAK","updated_at":"2026-09-21T09:00:33.427937Z"}}